Location: Bu�n Treun
(12.1333°N, 108.3167°E)
Time: 00:04:45
(UTC+00:00)

X-37B - Visible Passes

Search period start: 23 June 2021 00:00
Search period end: 03 July 2021 00:00
Orbit: 386 x 389 km, 45.0° (Epoch: 10 June)

Date Brightness Start Highest point End Pass type
(mag) Time Alt. Az. Time Alt. Az. Time Alt. Az.
23 Jun 2.8 20:55:30 10° NNW 20:58:14 27° NE 21:00:58 10° ESE visible
24 Jun 3.7 11:44:39 10° W 11:46:54 18° NW 11:49:10 10° N visible
24 Jun 1.3 21:33:39 11° WNW 21:36:24 31° SW 21:39:14 10° SSE visible
